EW5542 Weather Reports


time (UTC)temp
C
wind
direction
speed
KPH
gust
KPH
rain 1hr
cm
rain 24hr
cm
rain mn
cm
humidity
%
barometer
mb
20260906003034 32 342 0.0 0.0 0.00 0.00 0.00 60 1009.9
20260906001534 33 355 0.0 0.0 0.00 0.00 0.00 57 1009.9
20260906000033 33 315 0.0 0.0 0.00 0.00 0.00 55 1010.0
20260905234539 33 333 0.0 4.8 0.00 0.00 0.00 54 1010.0
20260905233032 35 313 0.0 4.8 0.00 0.00 0.00 52 1010.1
20260905231531 35 9 0.0 0.0 0.00 0.00 0.00 48 1009.9
20260905230030 36 328 0.0 9.7 0.00 0.00 0.00 47 1009.7
20260905224535 36 344 0.0 3.2 0.00 0.00 0.00 47 1009.7
20260905223034 35 321 0.0 9.7 0.00 0.00 0.00 49 1009.9
20260905221529 35 312 0.0 12.9 0.00 0.00 0.00 51 1009.9
20260905220029 35 306 3.2 14.5 0.00 0.00 0.00 51 1009.8
20260905214528 35 360 4.8 12.9 0.00 0.00 0.00 49 1009.6
20260905213029 35 339 0.0 8.0 0.00 0.00 0.00 50 1009.8
20260905211527 35 323 0.0 11.3 0.00 0.00 0.00 48 1009.8
20260905210024 36 15 3.2 20.9 0.00 0.00 0.00 44 1009.9
20260905204523 37 336 0.0 16.1 0.00 0.00 0.00 42 1010.0
20260905203022 37 313 12.9 20.9 0.00 0.00 0.00 39 1010.1
20260905201522 37 312 3.2 16.1 0.00 0.00 0.00 45 1010.2
20260905200019 37 265 1.6 14.5 0.00 0.00 0.00 41 1010.3
20260905194514 37 292 1.6 16.1 0.00 0.00 0.00 42 1010.5
20260905193012 37 329 0.0 11.3 0.00 0.00 0.00 42 1010.6
20260905191512 37 5 0.0 12.9 0.00 0.00 0.00 45 1010.9
20260905190021 36 190 0.0 16.1 0.00 0.00 0.00 45 1011.0
20260905184503 36 5 0.0 12.9 0.00 0.00 0.00 46 1011.2
20260905181559 36 217 0.0 8.0 0.00 0.00 0.00 48 1011.5
20260905180051 36 280 0.0 6.4 0.00 0.00 0.00 49 1011.7
20260905174547 35 149 0.0 6.4 0.00 0.00 0.00 52 1011.8
20260905173043 35 268 0.0 8.0 0.00 0.00 0.00 52 1012.0
20260905171541 35 225 0.0 8.0 0.00 0.00 0.00 54 1012.0
20260905170041 34 231 0.0 8.0 0.00 0.00 0.00 56 1012.2
20260905164538 33 182 0.0 9.7 0.00 0.00 0.00 57 1012.6
20260905163033 33 221 0.0 8.0 0.00 0.00 0.00 58 1012.6
20260905160028 32 193 0.0 6.4 0.00 0.00 0.00 60 1012.8
20260905154525 32 173 0.0 6.4 0.00 0.00 0.00 61 1012.9
20260905153029 31 237 0.0 9.7 0.00 0.00 0.00 64 1013.0
20260905151518 30 195 0.0 8.0 0.00 0.00 0.00 66 1012.9
20260905150019 30 234 0.0 6.4 0.00 0.00 0.00 67 1012.9
20260905144513 30 229 4.8 9.7 0.00 0.00 0.00 67 1012.8
20260905143020 30 228 0.0 9.7 0.00 0.00 0.00 69 1012.7
20260905141509 29 200 0.0 4.8 0.00 0.00 0.00 74 1012.9
20260905140003 28 196 0.0 6.4 0.00 0.00 0.00 76 1012.9
20260905134559 27 191 0.0 0.0 0.00 0.00 0.00 78 1013.0
20260905133106 27 188 0.0 8.0 0.00 0.00 0.00 79 1013.0
20260905131608 26 117 0.0 4.8 0.00 0.00 0.00 81 1012.8
20260905130055 26 118 0.0 6.4 0.00 0.00 0.00 83 1012.9
20260905124554 25 137 0.0 0.0 0.00 0.00 0.00 84 1012.7
20260905123054 24 141 0.0 0.0 0.00 0.00 0.00 86 1012.6
20260905121553 24 146 0.0 0.0 0.00 0.00 0.00 87 1012.5
20260905120050 24 146 0.0 0.0 0.00 0.00 0.00 87 1012.3
20260905114551 24 146 0.0 0.0 0.00 0.00 0.00 87 1012.2
20260905113051 24 146 0.0 0.0 0.00 0.00 0.00 87 1012.3
20260905111606 24 146 0.0 0.0 0.00 0.00 0.00 86 1012.2
20260905110054 24 146 0.0 0.0 0.00 0.00 0.00 86 1012.2
20260905104546 24 146 0.0 0.0 0.00 0.00 0.00 86 1012.0
20260905103045 25 146 0.0 0.0 0.00 0.00 0.00 86 1011.9
20260905101549 25 146 0.0 0.0 0.00 0.00 0.00 86 1012.0
20260905100046 25 146 0.0 0.0 0.00 0.00 0.00 86 1012.0
20260905094543 25 146 0.0 0.0 0.00 0.00 0.00 86 1011.9
20260905093043 25 146 0.0 0.0 0.00 0.00 0.00 85 1011.8
20260905091542 25 146 0.0 0.0 0.00 0.00 0.00 85 1011.8
20260905090039 25 146 0.0 0.0 0.00 0.00 0.00 85 1011.9
20260905084537 25 146 0.0 0.0 0.00 0.00 0.00 84 1011.9
20260905083036 25 146 0.0 0.0 0.00 0.00 0.00 84 1011.9
20260905081534 26 146 0.0 0.0 0.00 0.00 0.00 82 1011.9
20260905080033 26 146 0.0 0.0 0.00 0.00 0.00 81 1012.1
20260905074532 26 146 0.0 0.0 0.00 0.00 0.00 82 1012.1
20260905073041 26 146 0.0 0.0 0.00 0.00 0.00 82 1012.1
20260905071540 26 146 0.0 0.0 0.00 0.00 0.00 83 1012.3
20260905070029 26 146 0.0 0.0 0.00 0.00 0.00 83 1012.3
20260905064528 26 146 0.0 0.0 0.00 0.00 0.00 81 1012.2
20260905063027 26 146 0.0 0.0 0.00 0.00 0.00 82 1012.3
20260905061529 26 146 0.0 0.0 0.00 0.00 0.00 83 1012.4
20260905060026 26 146 0.0 0.0 0.00 0.00 0.00 83 1012.5
20260905054538 26 146 0.0 0.0 0.00 0.00 0.00 82 1012.5
20260905053021 26 146 0.0 0.0 0.00 0.00 0.00 82 1012.6
20260905051519 27 146 0.0 0.0 0.00 0.00 0.00 81 1012.4
20260905050016 27 146 0.0 0.0 0.00 0.00 0.00 80 1012.3
20260905044514 28 146 0.0 0.0 0.00 0.00 0.00 78 1012.4
20260905043012 28 146 0.0 0.0 0.00 0.00 0.00 77 1012.3
20260905041512 28 140 0.0 0.0 0.00 0.00 0.00 74 1012.2
20260905040017 28 140 0.0 0.0 0.00 0.00 0.00 73 1012.3
20260905034511 28 142 0.0 0.0 0.00 0.00 0.00 74 1012.4
20260905033010 29 131 0.0 0.0 0.00 0.00 0.00 72 1012.4
20260905031510 28 131 0.0 0.0 0.00 0.00 0.00 72 1012.5
20260905030009 28 132 0.0 3.2 0.00 0.00 0.00 74 1012.6
20260905024512 28 136 0.0 0.0 0.00 0.00 0.00 76 1012.5
20260905023017 28 169 0.0 0.0 0.00 0.00 0.00 76 1012.4
20260905021507 29 169 0.0 0.0 0.00 0.00 0.00 77 1012.1
20260905020007 30 169 0.0 0.0 0.00 0.00 0.00 74 1012.0
20260905014507 30 169 0.0 0.0 0.00 0.00 0.00 73 1011.8
20260905013007 30 169 0.0 0.0 0.00 0.00 0.00 71 1011.6
20260905011508 30 169 0.0 0.0 0.00 0.00 0.00 70 1011.4
20260905010008 31 169 0.0 0.0 0.00 0.00 0.00 69 1011.4
20260905004507 32 169 0.0 0.0 0.00 0.00 0.00 67 1011.4